Retour au catalogue

ATLAS 2A CENTAUR R/B

ActifHEO
NORAD 26389·ROCKET BODY·🇺🇸 United States

Lancé Jun 30, 2000 depuis Cape Canaveral Space Force Station

Loading…

Prochains Passages (prochaines 24 heures)

TLE

FraisSource: Space-Track

Époque: Sep 14, 2026, 10:35 UTC

1 26389U 00034B   26257.44097943  .00011473  00000-0  12260-2 0  9996
2 26389  26.8351 246.3480 4848171  37.4291 348.1092  5.90638620423196

Suivez ATLAS 2A CENTAUR R/B en temps réel avec AllMySat

Download on the App Store